Commit Graph
9315 Commits
Author SHA1 Message Date
J. Nick Koston 10bf05ab0d migrate 2025-06-24 22:59:46 +02:00
J. Nick Koston 5ad1af69e4 migrate 2025-06-24 22:57:10 +02:00
J. Nick Koston 48f2911434 raise 2025-06-24 22:18:29 +02:00
J. Nick Koston ac3598f12a cleanup 2025-06-24 18:07:58 +02:00
J. Nick Koston 66201be5ca preen 2025-06-24 18:00:10 +02:00
J. Nick Koston ac0b0b652e cleanup 2025-06-24 17:55:58 +02:00
J. Nick Koston d89ee2df42 Update esphome/core/application.h 2025-06-24 17:52:13 +02:00
J. Nick Koston 418e248e5e cleanup 2025-06-24 17:51:05 +02:00
J. Nick Koston 8c2b141049 cleanup 2025-06-24 17:41:40 +02:00
J. Nick Koston 2f8e07302b Update esphome/core/entity_base.cpp 2025-06-24 17:10:06 +02:00
J. Nick Koston c3776240b6 fixes 2025-06-24 17:03:23 +02:00
J. Nick Koston e370872ec1 fix conflicts 2025-06-24 16:13:34 +02:00
Jesse Hills d4e978369a Store reference to device on EntityBase
This is so we can get the name of the device to use as part of the object id and to internally set the name for logging.
2025-06-24 19:56:30 +12:00
Jesse Hills 8d5d7f5237 Merge branch 'dev' into multi_device 2025-06-24 16:02:03 +12:00
Cody CutrerandKeith Burzinski a35e476be5 [opt3001] New component (#6625)
Co-authored-by: Keith Burzinski <kbx81x@gmail.com>
2025-06-23 14:31:20 -05:00
Jesse Hills 87a7157fc4 Merge branch 'release' into dev 2025-06-24 07:28:40 +12:00
Jesse Hills fa34adbf6c Merge pull request #9185 from esphome/bump-2025.6.1
2025.6.1
2025.6.1
2025-06-24 07:27:59 +12:00
dependabot[bot] ac942e0670 Bump aioesphomeapi from 33.1.0 to 33.1.1 (#9187) 2025-06-23 19:58:32 +02:00
Jesse Hills 22e360d479 Bump version to 2025.6.1 2025-06-23 23:32:22 +12:00
myhomeiot 649936200e Restore access to BLEScanResult as get_scan_result (#9148) 2025-06-23 23:32:22 +12:00
rwrozelleandJesse Hills 5d6e690c12 Fixes for setup of OpenThread either using TLV or entering Credentials directly (#9157)
Co-authored-by: Jesse Hills <3060199+jesserockz@users.noreply.github.com>
2025-06-23 23:32:22 +12:00
Jesse Hills 2f2ecadae7 [config validation] Add more ip address / network validators (#9181) 2025-06-23 23:32:22 +12:00
J. Nick Koston 6dfb9eba61 Fix missing BLE GAP events causing RSSI sensor and beacon failures (#9138) 2025-06-23 23:32:22 +12:00
Edward Firmo 24587fe875 [nextion] Fix command spacing double timing and response blocking issues (#9134) 2025-06-23 23:32:22 +12:00
J. Nick Koston a1aebe6a2c Eliminate memory fragmentation with BLE event pool (#9101) 2025-06-23 23:32:22 +12:00
Gustavo Ambrozio 2ad266582f [online_image] Allow suppressing update on url change (#8885) 2025-06-23 20:40:07 +10:00
JonasB2497 1a47164876 Feature fontmetrics (#8978) 2025-06-23 14:47:47 +10:00
myhomeiot cd22723623 Restore access to BLEScanResult as get_scan_result (#9148) 2025-06-23 15:42:20 +12:00
rwrozelleandJesse Hills aecaffa2f5 Fixes for setup of OpenThread either using TLV or entering Credentials directly (#9157)
Co-authored-by: Jesse Hills <3060199+jesserockz@users.noreply.github.com>
2025-06-23 15:41:29 +12:00
Jesse Hills 87df3596a2 [config validation] Add more ip address / network validators (#9181) 2025-06-23 15:41:06 +12:00
Clyde Stubbs 41c7852128 [lvgl] Use styles instead of object properties for themes (#9116) 2025-06-23 14:25:26 +12:00
Clyde Stubbs 78ec9856fb [lvgl] Add start_value to bar; make values templatable and updateable (#9056) 2025-06-23 14:23:41 +12:00
J. Nick Koston 2a45467bf6 Pre-reserve looping components vector to reduce memory allocations (#9177) 2025-06-23 14:10:09 +12:00
J. Nick Koston 7fc5bfd787 Reduce RAM usage for scheduled tasks (#9180) 2025-06-23 14:09:34 +12:00
J. Nick Koston 04f592ba6d Fix slow noise handshake by reading multiple messages per loop (#9130) 2025-06-23 14:07:53 +12:00
J. Nick Koston 59889a6286 Reduce Logger memory usage by optimizing variable sizes (#9161) 2025-06-23 14:06:02 +12:00
J. Nick Koston 20f946ccaf Merge branch 'dev' into multi_device 2025-06-23 00:32:09 +02:00
Jesse Hills e5e972231c Update testing 2025-06-23 10:26:31 +12:00
Jesse Hills dc5cbd4df8 [const] Move `CONF_DEVICES to const.py` (#9179) 2025-06-23 09:54:49 +12:00
Jesse Hills 754d2874e7 `this->` 2025-06-23 09:21:29 +12:00
Jesse Hills 06de58ff8b Dont need to warning about simple string area
A single device in a single area can have a simple string as the area
2025-06-23 09:20:53 +12:00
Edward Firmo 7ab9083d77 [nextion] Revert to millis() on recv_ret_string_ (#9168) 2025-06-22 20:56:50 +00:00
J. Nick Koston 5857f7b9a7 Merge remote-tracking branch 'dala318/multi_device' into multi_device 2025-06-22 21:55:46 +02:00
J. Nick Koston a5ea0cd41f remove unreachable code 2025-06-22 21:55:23 +02:00
J. Nick Koston d677934417 Merge branch 'dev' into multi_device 2025-06-22 21:45:28 +02:00
J. Nick Koston ba87a0b63c cleanups 2025-06-22 21:32:20 +02:00
J. Nick Koston b725bb3dd1 lint 2025-06-22 21:28:16 +02:00
J. Nick Koston c34ba3deb5 lint 2025-06-22 21:25:55 +02:00
J. Nick Koston 68b13340fb lint 2025-06-22 21:24:17 +02:00
J. Nick Koston 8831999ea6 lint 2025-06-22 21:23:41 +02:00